Weather History for Rochelle, IL

Change the Weather History Date:

Monday, July 15, 2013

  Actual Average (KRFD) Record (KRFD)
Temperature  
Mean Temperature 78 °F 74 °F  
Max Temperature 89 °F 85 °F 102 °F (1988)
Min Temperature 68 °F 63 °F 45 °F (1930)
Degree Days  
Heating Degree Days 0 0  
Month to date heating degree days 0  
Since 1 June heating degree days 31  
Since 1 July heating degree days 0  
Cooling Degree Days 14 9  
Month to date cooling degree days 135  
Year to date cooling degree days 365  
Since 1 June cooling degree days 310  
Growing Degree Days 28 (Base 50)    
Moisture  
Dew Point 70 °F    
Average Humidity 74    
Maximum Humidity 92    
Minimum Humidity 52    
Precipitation  
Precipitation 0.00 in 0.12 in 1.75 in (1933)
Month to date precipitation 1.88  
Year to date precipitation 19.00  
Snow  
Snow 0.00 in 0.00 in 0.00 in ()
Month to date snowfall 0.0  
Since 1 June snowfall 0.0  
Since 1 July snowfall 0.0  
Snow Depth -    
Sea Level Pressure  
Sea Level Pressure 30.26 in    
Wind  
Wind Speed 4 mph (ESE)    
Max Wind Speed 9 mph    
Max Gust Speed -    
Visibility 9 miles    
Events      
T = Trace of Precipitation, MM = Missing Value Source: NWS Daily Summary

Daily Weather History Graph

Daily Weather History Graph

Search for Another Location

Airport:

Trip Planner

Search our weather history database for the weather conditions in past years. The results will help you decide how hot, cold, wet, or windy it might be!

Date:

Astronomy

Jul. 15, 2013 Rise Set
Actual Time 5:34 AM CDT 8:29 PM CDT
Civil Twilight 5:01 AM CDT 9:02 PM CDT
Nautical Twilight 4:19 AM CDT 9:44 PM CDT
Astronomical Twilight 3:30 AM CDT 10:33 PM CDT
Moon 1:01 PM CDT (7/15) No Moon Set
Length of Visible Light 16h 01m
Length of Day
14h 55m
Waxing Crescent, 45% of the Moon is Illuminated
Jul 15
Waxing Crescent
Jul 15
First Quarter
Jul 22
Full
Jul 29
Last Quarter
Aug 6
New

Hourly Weather History & Observations

Time (CDT) Temp. Heat Index Dew Point Humidity Pressure Visibility Wind Dir Wind Speed Gust Speed Precip Events Conditions
12:15 AM 71.2 °F - 66.7 °F 86% 30.23 in 10.0 mi ESE 6.9 mph - N/A   Clear
12:35 AM 72.0 °F - 66.7 °F 84% 30.23 in 10.0 mi East 4.6 mph - N/A   Clear
12:55 AM 72.5 °F - 66.7 °F 82% 30.23 in 10.0 mi East 5.8 mph - N/A   Clear
1:15 AM 71.8 °F - 66.6 °F 84% 30.23 in 10.0 mi East 5.8 mph - N/A   Clear
1:35 AM 71.6 °F - 66.4 °F 84% 30.23 in 10.0 mi East 3.5 mph - N/A   Clear
1:55 AM 70.9 °F - 66.2 °F 85% 30.23 in 10.0 mi East 5.8 mph - N/A   Clear
2:15 AM 69.8 °F - 66.2 °F 88% 30.24 in 7.0 mi East 4.6 mph - N/A   Clear
2:35 AM 70.7 °F - 66.2 °F 86% 30.24 in 10.0 mi East 4.6 mph - N/A   Clear
2:55 AM 71.2 °F - 66.2 °F 84% 30.24 in 10.0 mi East 5.8 mph - N/A   Clear
3:15 AM 72.1 °F - 65.8 °F 80% 30.24 in 10.0 mi ENE 3.5 mph - N/A   Clear
3:35 AM 69.6 °F - 65.8 °F 88% 30.25 in 7.0 mi ENE 3.5 mph - N/A   Clear
3:55 AM 69.3 °F - 65.7 °F 88% 30.24 in 7.0 mi NE 3.5 mph - N/A   Clear
4:15 AM 69.1 °F - 65.8 °F 89% 30.24 in 7.0 mi ENE 3.5 mph - N/A   Clear
4:35 AM 68.4 °F - 65.5 °F 90% 30.25 in 7.0 mi ENE 4.6 mph - N/A   Clear
4:55 AM 68.7 °F - 65.5 °F 89% 30.25 in 7.0 mi NNE 3.5 mph - N/A   Clear
5:15 AM 68.2 °F - 65.3 °F 90% 30.25 in 5.0 mi East 3.5 mph - N/A   Clear
5:35 AM 68.0 °F - 65.3 °F 91% 30.25 in 5.0 mi NE 4.6 mph - N/A   Clear
5:55 AM 68.4 °F - 65.7 °F 91% 30.26 in 5.0 mi ENE 3.5 mph - N/A   Clear
6:15 AM 69.1 °F - 66.2 °F 91% 30.26 in 5.0 mi ENE 4.6 mph - N/A   Clear
6:35 AM 70.7 °F - 66.6 °F 87% 30.26 in 7.0 mi ENE 4.6 mph - N/A   Clear
6:55 AM 72.3 °F - 67.5 °F 85% 30.26 in 7.0 mi East 4.6 mph - N/A   Clear
7:15 AM 74.5 °F - 68.4 °F 81% 30.27 in 10.0 mi East 6.9 mph - N/A   Clear
7:35 AM 75.7 °F - 69.4 °F 81% 30.27 in 10.0 mi ESE 5.8 mph - N/A   Clear
7:55 AM 77.4 °F - 69.8 °F 77% 30.27 in 10.0 mi ESE 5.8 mph - N/A   Clear
8:15 AM 78.6 °F - 70.7 °F 77% 30.28 in 10.0 mi SE 4.6 mph - N/A   Clear
8:35 AM 79.5 °F - 71.4 °F 76% 30.29 in 10.0 mi SE 4.6 mph - N/A   Clear
8:55 AM 80.6 °F 84.7 °F 72.0 °F 75% 30.28 in 10.0 mi SE 3.5 mph - N/A   Clear
9:15 AM 81.5 °F 86.1 °F 72.0 °F 73% 30.29 in 10.0 mi SE 3.5 mph - N/A   Clear
9:35 AM 82.4 °F 87.4 °F 72.0 °F 71% 30.29 in 10.0 mi South 3.5 mph - N/A   Clear
9:55 AM 83.3 °F 89.0 °F 72.5 °F 70% 30.29 in 10.0 mi SE 3.5 mph - N/A   Clear
10:15 AM 83.7 °F 88.6 °F 71.4 °F 66% 30.29 in 10.0 mi Calm Calm - N/A   Clear
10:35 AM 85.3 °F 90.4 °F 71.1 °F 62% 30.29 in 10.0 mi Calm Calm - N/A   Clear
10:55 AM 86.0 °F 90.4 °F 69.6 °F 58% 30.28 in 10.0 mi Calm Calm - N/A   Clear
11:15 AM 85.5 °F 91.1 °F 71.4 °F 63% 30.28 in 10.0 mi Calm Calm - N/A   Clear
11:35 AM 86.2 °F 90.7 °F 70.0 °F 58% 30.28 in 10.0 mi Calm Calm - N/A   Clear
11:55 AM 86.7 °F 90.6 °F 68.9 °F 55% 30.28 in 10.0 mi Calm Calm - N/A   Clear
12:15 PM 86.4 °F 90.7 °F 69.6 °F 57% 30.28 in 10.0 mi Calm Calm - N/A   Clear
12:35 PM 88.0 °F 92.5 °F 69.3 °F 54% 30.28 in 10.0 mi Calm Calm - N/A   Clear
12:55 PM 87.8 °F 91.4 °F 68.2 °F 52% 30.28 in 10.0 mi Calm Calm - N/A   Clear
1:15 PM 87.8 °F 91.4 °F 68.2 °F 52% 30.27 in 10.0 mi Calm Calm - N/A   Clear
1:35 PM 87.1 °F 90.9 °F 68.5 °F 54% 30.27 in 10.0 mi Calm Calm - N/A   Clear
1:55 PM 86.5 °F 91.0 °F 69.6 °F 57% 30.27 in 10.0 mi Calm Calm - N/A   Scattered Clouds
2:15 PM 86.0 °F 91.1 °F 70.7 °F 60% 30.27 in 10.0 mi Calm Calm - N/A   Clear
2:35 PM 84.6 °F 90.0 °F 71.6 °F 65% 30.26 in 10.0 mi South 4.6 mph - N/A   Clear
2:55 PM 85.1 °F 90.4 °F 71.4 °F 63% 30.26 in 10.0 mi South 4.6 mph - N/A   Clear
3:15 PM 83.7 °F 90.4 °F 73.6 °F 72% 30.26 in 10.0 mi South 3.5 mph - N/A   Scattered Clouds
3:35 PM 83.8 °F 89.8 °F 72.9 °F 69% 30.25 in 10.0 mi Calm Calm - N/A   Scattered Clouds
3:55 PM 85.1 °F 91.8 °F 73.0 °F 67% 30.25 in 10.0 mi Calm Calm - N/A   Scattered Clouds
4:15 PM 85.5 °F 91.5 °F 72.1 °F 64% 30.24 in 10.0 mi Calm Calm - N/A   Scattered Clouds
4:35 PM 86.2 °F 91.1 °F 70.3 °F 59% 30.24 in 10.0 mi Calm Calm - N/A   Clear
4:55 PM 87.4 °F 93.1 °F 70.9 °F 58% 30.24 in 10.0 mi Calm Calm - N/A   Clear
5:15 PM 87.4 °F 93.5 °F 71.4 °F 59% 30.24 in 10.0 mi Calm Calm - N/A   Clear
5:35 PM 88.5 °F 94.0 °F 70.5 °F 55% 30.23 in 10.0 mi Calm Calm - N/A   Clear
5:55 PM 88.7 °F 93.9 °F 70.0 °F 54% 30.23 in 10.0 mi Calm Calm - N/A   Clear
6:15 PM 89.1 °F 95.0 °F 70.9 °F 55% 30.23 in 10.0 mi East 3.5 mph - N/A   Scattered Clouds
6:35 PM 86.2 °F 93.4 °F 73.0 °F 65% 30.23 in 10.0 mi ESE 8.1 mph - N/A   Mostly Cloudy
6:55 PM 86.0 °F 93.0 °F 72.9 °F 65% 30.23 in 10.0 mi ESE 9.2 mph - N/A   Scattered Clouds
7:15 PM 84.4 °F 89.7 °F 71.6 °F 65% 30.23 in 10.0 mi East 6.9 mph - N/A   Clear
7:35 PM 83.3 °F 88.4 °F 71.8 °F 68% 30.23 in 10.0 mi ESE 5.8 mph - N/A   Clear
7:55 PM 82.4 °F 87.2 °F 71.8 °F 70% 30.24 in 10.0 mi ESE 4.6 mph - N/A   Scattered Clouds
8:15 PM 81.5 °F 85.9 °F 71.6 °F 72% 30.24 in 10.0 mi ESE 4.6 mph - N/A   Scattered Clouds
8:35 PM 79.7 °F - 71.8 °F 77% 30.24 in 10.0 mi ESE 3.5 mph - N/A   Clear
8:55 PM 78.1 °F - 72.1 °F 82% 30.24 in 10.0 mi ESE 5.8 mph - N/A   Clear
9:15 PM 77.9 °F - 72.0 °F 82% 30.24 in 10.0 mi ESE 5.8 mph - N/A   Clear
9:35 PM 76.5 °F - 72.1 °F 86% 30.25 in 10.0 mi ESE 4.6 mph - N/A   Clear
9:55 PM 76.3 °F - 72.1 °F 87% 30.26 in 10.0 mi ESE 3.5 mph - N/A   Clear
10:15 PM 76.1 °F - 72.3 °F 88% 30.26 in 10.0 mi ESE 5.8 mph - N/A   Clear
10:35 PM 75.2 °F - 72.0 °F 90% 30.26 in 7.0 mi SE 5.8 mph - N/A   Clear
10:55 PM 74.5 °F - 71.8 °F 91% 30.27 in 7.0 mi SE 3.5 mph - N/A   Clear
11:15 PM 74.7 °F - 72.1 °F 92% 30.28 in 5.0 mi SE 4.6 mph - N/A   Clear
11:35 PM 74.5 °F - 72.0 °F 92% 30.28 in 5.0 mi SE 4.6 mph - N/A   Clear
11:55 PM 74.1 °F - 71.6 °F 92% 30.28 in 5.0 mi SE 4.6 mph - N/A   Clear